Вернуться в каталог

TITAN 3C TRANSTAGE DEB

АктивенHEO
NORAD 13957·DEBRIS·🇺🇸 United States

Запущен Dec 21, 1965 с Cape Canaveral Space Force Station

Loading…

Ближайшие Пролёты (ближайшие 24 часа)

TLE

СвежийSource: Space-Track

Эпоха: Sep 11, 2026, 09:41 UTC

1 13957U 65108W   26254.40375870  .00000010  00000-0  75140-3 0  9999
2 13957  26.3355 183.9894 6731519 325.0476 297.1932  2.80452227389568

Отслеживайте TITAN 3C TRANSTAGE DEB в реальном времени с AllMySat

Download on the App Store